Back to catalog

STARLINK-32253

AliveCommunicationsVLEO
NORAD 60733·PAYLOAD·🇺🇸 United States

Launched Aug 28, 2024 from Cape Canaveral Space Force Station

Loading…

Next Passes (next 24 hours)

TLE

FreshSource: CelesTrak SupGP

Epoch: Sep 14, 2026, 14:57 UTC

1 60733C 24152P   26257.62340278  .00012545  00000+0  37063-3 0  2572
2 60733  53.1566 108.8809 0001186  97.4866 314.6595 15.34385707    14

Track STARLINK-32253 in real time with AllMySat

Download on the App Store